Location: Unspecified
(0.0000°N, 0.0000°E)
Time: 11:15:00
(UTC+00:00)

N. Korean satellite - Visible Passes

Search period start: 10 December 2019 00:00
Search period end: 20 December 2019 00:00
Orbit: 456 x 506 km, 97.2° (Epoch: 09 December)

Date Brightness Start Highest point End Pass type
(mag) Time Alt. Az. Time Alt. Az. Time Alt. Az.
10 Dec 7.7 05:14:18 10° NNE 05:17:36 45° E 05:20:53 10° S visible
11 Dec 9.7 04:49:58 10° ENE 04:52:13 17° E 04:54:29 10° SE visible
14 Dec 8.5 05:06:08 10° NE 05:09:13 32° E 05:12:19 10° SSE visible
15 Dec 9.9 04:42:24 10° ENE 04:43:51 12° E 04:45:18 10° SE visible
17 Dec 6.8 05:22:50 10° NNE 05:26:12 69° ESE 05:29:36 10° S visible
18 Dec 9.1 04:58:03 10° NE 05:00:49 23° E 05:03:37 10° SSE visible
18 Dec 10.1 18:19:26 10° SW 18:21:20 14° WSW 18:23:13 10° WNW visible
